Location: Poprad
(49.0500°N, 20.3000°E)
Time: 07:21:50
(UTC+02:00)

Oscar 19 - Visible Passes

Search period start: 16 April 2024 00:00
Search period end: 26 April 2024 00:00
Orbit: 771 x 788 km, 98.9° (Epoch: 15 April)

Date Brightness Start Highest point End Pass type
(mag) Time Alt. Az. Time Alt. Az. Time Alt. Az.
16 Apr 12.7 05:01:30 10° NNE 05:06:03 31° E 05:10:37 10° SSE visible
17 Apr 13.4 04:29:59 10° NE 04:33:17 17° E 04:36:33 10° SE visible
19 Apr 12.6 05:03:26 10° NNE 05:08:03 31° E 05:12:38 10° SSE visible
20 Apr 13.4 04:31:53 10° NE 04:35:16 17° E 04:38:38 10° SE visible
23 Apr 13.4 04:33:47 10° NE 04:37:15 18° E 04:40:42 10° SE visible
